Simultaneous Nadir Overpasses (SNOs) Predictions

Prediction of SNOs between GOES-17 and METOP-B Satellite Orbit:

Table of predicted SNOs for the next 14.0 days since TLE Epoch: 9/14/2024
Index Date Time (GOES-17) GOES-17 Lat,Lon METOP-B Lat,Lon Distance(km) Time Diff (sec)
1 09/14/2024 16:11:10 0.00,-104.73 -0.41,-102.80 219.52 80
2 09/16/2024 04:30:09 0.00,-104.68 -0.59,-107.41 310.16 80
3 09/17/2024 04:06:49 0.00,-104.69 0.53,-102.42 258.71 80
4 09/18/2024 16:25:38 -0.00,-104.73 0.52,-106.98 256.54 80
5 09/19/2024 16:07:38 -0.01,-104.74 -0.61,-101.99 312.67 80
6 09/21/2024 04:26:36 0.01,-104.69 -0.41,-106.59 216.40 80
7 09/22/2024 04:03:15 0.01,-104.69 0.67,-101.59 352.52 80
8 09/23/2024 16:22:04 -0.01,-104.74 0.33,-106.16 162.97 80
9 09/24/2024 16:04:03 -0.01,-104.74 -0.82,-101.18 406.30 80
10 09/26/2024 04:23:01 0.00,-104.70 -0.21,-105.77 122.30 80
11 09/27/2024 03:59:39 0.00,-104.70 0.90,-100.78 446.94 80
